Regional Weather Roundup
Issued by NWS

Home | Current Version | Previous Version | Text Only | Print | Product List | Glossary On
Versions: 1 2 3 4 5 6 7 8 9 10 11 12 13 14 15 16 17 18 19 20 21 22 23 24 25 26 27 28 29 30 31 32 33 34 35 36 37 38 39 40 41 42 43 44 45 46 47 48 49 50
000
ASUS43 KFSD 280902
RWRSD

WEATHER ROUNDUP FOR SOUTH DAKOTA
NATIONAL WEATHER SERVICE SIOUX FALLS SD
400 AM CDT TUE JUL 28 2015

NOTE: "FAIR" INDICATES FEW OR NO CLOUDS BELOW 12,000 FEET WITH NO
SIGNIFICANT WEATHER AND/OR OBSTRUCTIONS TO VISIBILITY.


SDZ001>005-009-010-012>017-281000-
NORTHWEST AND NORTH CENTRAL SOUTH DAKOTA

CITY           SKY/WX    TMP DP  RH WIND       PRES   REMARKS
FAITH            N/A     59  53  80 W15       29.80R
MOBRIDGE       CLOUDY    70  64  81 W15       29.68R
$$

SDZ012>016-024>037-041>051-057-063-072>074-281000-
SOUTHWEST AND SOUTH CENTRAL SOUTH DAKOTA

CITY           SKY/WX    TMP DP  RH WIND       PRES   REMARKS
RAPID CTY ARPT CLEAR     56  49  77 NW14      29.87S
PIERRE         CLOUDY    67  65  93 W5        29.71R
CUSTER         CLEAR     45  40  82 W5        30.00R
ELLSWORTH AFB  CLEAR     57  50  77 NW20      29.87S
PHILIP         MOCLDY    61  55  81 NW15G23   29.81R
PINE RIDGE     CLEAR     59  54  83 W5        29.92R
WINNER         FAIR      67  64  90 NW8       29.75R
$$

SDZ004>011-016>023-039-040-281000-
NORTHEAST SOUTH DAKOTA

CITY           SKY/WX    TMP DP  RH WIND       PRES   REMARKS
ABERDEEN       CLOUDY    69  66  90 E15       29.58R
WATERTOWN      RAIN      69  67  93 NW9       29.74F
BROOKINGS      CLOUDY    70  64  83 CALM      29.80S
$$

SDZ017-020-022-023-036>040-048>070-281000-
SOUTHEAST SOUTH DAKOTA

CITY           SKY/WX    TMP DP  RH WIND       PRES   REMARKS
SIOUX FALLS    LGT RAIN  72  68  87 W7G22     29.77R
HURON          CLOUDY    68  66  93 SW9       29.71R
CHAMBERLAIN    CLOUDY    67  67  98 SW3       29.69F
MITCHELL       CLOUDY    69  68  96 E5        29.71F
YANKTON        CLOUDY    68  64  88 MISG      29.80R THUNDER VSB 1/2
$$

ABBREVIATIONS USED IN REMARKS
   TC - TEMPERATURE IN CELSIUS
  WCI - WIND CHILL INDEX
   HX - HEAT INDEX
  VSB - VISIBILITY




USA.gov is the U.S. government's official web portal to all federal, state and local government web resources and services.